DLH4XR EDDF-EGPF

Flight info

Callsign DLH4XR
Flight time 1h 47m
Altitude 34000
Route OBOKA3W OBOKA Z28 DIBIR DCT BUDIP DCT MIMVA L602 EMLON M79 TENDO DCT AGPED
Aircraft A320/M-SDE3FGHIRWY/LB1

Departure

Time 2026-04-15 14:08
Airport Frankfurt Main Airport (EDDF)

Arrival

Time 2026-04-15 15:55
Airport Glasgow Airport (EGPF)
Time Latitude Longitude Altitude Speed Heading
2026-04-15 13:32 50.04749 8.57130 364 ft 0 kts 120°
2026-04-15 13:58 50.04751 8.57127 356 ft 2 kts 120°
2026-04-15 13:58 50.04764 8.57092 359 ft 4 kts 122°
2026-04-15 13:58 50.04780 8.57058 356 ft 4 kts 137°
2026-04-15 13:58 50.04799 8.57040 361 ft 4 kts 192°
2026-04-15 13:59 50.04802 8.57040 356 ft 3 kts 204°
2026-04-15 13:59 50.04779 8.57023 357 ft 4 kts 205°
2026-04-15 13:59 50.04769 8.57016 361 ft 0 kts 205°
2026-04-15 14:01 50.04754 8.57005 361 ft 7 kts 205°
2026-04-15 14:02 50.04679 8.56952 360 ft 15 kts 205°
2026-04-15 14:02 50.04586 8.56902 361 ft 13 kts 192°
2026-04-15 14:02 50.04514 8.56877 359 ft 5 kts 193°
2026-04-15 14:02 50.04507 8.56874 359 ft 0 kts 193°
2026-04-15 14:03 50.04494 8.56871 359 ft 8 kts 187°
2026-04-15 14:03 50.04487 8.56977 361 ft 15 kts 75°
2026-04-15 14:03 50.04525 8.57137 357 ft 16 kts 70°
2026-04-15 14:04 50.04566 8.57311 359 ft 18 kts 70°
2026-04-15 14:04 50.04594 8.57482 361 ft 13 kts 116°
2026-04-15 14:04 50.04526 8.57539 361 ft 11 kts 156°
2026-04-15 14:04 50.04471 8.57614 367 ft 9 kts 117°
2026-04-15 14:05 50.04474 8.57738 367 ft 15 kts 69°
2026-04-15 14:05 50.04522 8.57930 366 ft 23 kts 70°
2026-04-15 14:05 50.04580 8.58175 368 ft 25 kts 69°
2026-04-15 14:05 50.04637 8.58417 370 ft 22 kts 69°
2026-04-15 14:06 50.04631 8.58568 370 ft 12 kts 152°
2026-04-15 14:06 50.04563 8.58602 372 ft 9 kts 161°
2026-04-15 14:06 50.04515 8.58622 371 ft 6 kts 178°
2026-04-15 14:06 50.04484 8.58582 370 ft 7 kts 256°
2026-04-15 14:07 50.04465 8.58499 370 ft 15 kts 249°
2026-04-15 14:07 50.04342 8.57982 368 ft 88 kts 250°
2026-04-15 14:07 50.04057 8.56787 359 ft 146 kts 249°
2026-04-15 14:07 50.03657 8.55140 602 ft 169 kts 249°
2026-04-15 14:08 50.03246 8.53452 1357 ft 167 kts 248°
2026-04-15 14:08 50.02823 8.51722 1907 ft 180 kts 248°
2026-04-15 14:08 50.02323 8.49817 2296 ft 199 kts 236°
2026-04-15 14:08 50.01263 8.48443 2871 ft 203 kts 203°
2026-04-15 14:09 49.99899 8.47876 3508 ft 206 kts 185°
2026-04-15 14:09 49.98456 8.47679 4170 ft 208 kts 185°
2026-04-15 14:09 49.97021 8.47395 4904 ft 209 kts 187°
2026-04-15 14:09 49.95589 8.46931 5535 ft 214 kts 197°
2026-04-15 14:10 49.94114 8.46213 5925 ft 232 kts 197°
2026-04-15 14:10 49.92550 8.45307 6515 ft 244 kts 208°
2026-04-15 14:10 49.91195 8.43764 7324 ft 248 kts 225°
2026-04-15 14:10 49.90154 8.41622 8145 ft 251 kts 239°
2026-04-15 14:11 49.89271 8.39266 8998 ft 254 kts 244°
2026-04-15 14:11 49.88711 8.36648 9823 ft 260 kts 259°
2026-04-15 14:11 49.88655 8.33738 10254 ft 281 kts 274°
2026-04-15 14:11 49.88840 8.30602 10524 ft 305 kts 275°
2026-04-15 14:12 49.89282 8.27280 10916 ft 323 kts 288°
2026-04-15 14:12 49.90277 8.24116 11614 ft 330 kts 302°
2026-04-15 14:12 49.91629 8.21215 12387 ft 334 kts 305°
2026-04-15 14:12 49.92989 8.18338 13165 ft 337 kts 304°
2026-04-15 14:13 49.94492 8.15515 13906 ft 342 kts 314°
2026-04-15 14:13 49.96285 8.13051 14571 ft 347 kts 317°
2026-04-15 14:13 49.98126 8.10600 15234 ft 350 kts 317°
2026-04-15 14:13 49.99983 8.08132 15888 ft 353 kts 317°
2026-04-15 14:14 50.01854 8.05643 16539 ft 356 kts 317°
2026-04-15 14:14 50.03742 8.03122 17186 ft 359 kts 317°
2026-04-15 14:14 50.05642 8.00575 17820 ft 362 kts 317°
2026-04-15 14:14 50.07562 7.97998 18461 ft 366 kts 317°
2026-04-15 14:15 50.09495 7.95401 19031 ft 369 kts 317°
2026-04-15 14:15 50.11443 7.92787 19585 ft 371 kts 317°
2026-04-15 14:15 50.13378 7.90184 20146 ft 374 kts 317°
2026-04-15 14:15 50.15344 7.87533 20710 ft 376 kts 317°
2026-04-15 14:16 50.17334 7.84846 21301 ft 378 kts 317°
2026-04-15 14:16 50.19330 7.82146 21879 ft 381 kts 317°
2026-04-15 14:16 50.21327 7.79439 22460 ft 383 kts 317°
2026-04-15 14:16 50.23354 7.76691 23033 ft 385 kts 317°
2026-04-15 14:17 50.25474 7.74108 23575 ft 390 kts 325°
2026-04-15 14:17 50.27894 7.72127 24035 ft 395 kts 334°
2026-04-15 14:17 50.30424 7.70404 24489 ft 398 kts 334°
2026-04-15 14:17 50.32934 7.68692 24941 ft 400 kts 334°
2026-04-15 14:18 50.35486 7.66949 25366 ft 401 kts 334°
2026-04-15 14:18 50.38054 7.65192 25797 ft 403 kts 334°
2026-04-15 14:18 50.40629 7.63431 26228 ft 405 kts 334°
2026-04-15 14:18 50.43216 7.61660 26646 ft 407 kts 334°
2026-04-15 14:19 50.45814 7.59872 27042 ft 409 kts 334°
2026-04-15 14:19 50.48423 7.58070 27432 ft 410 kts 334°
2026-04-15 14:19 50.51044 7.56258 27812 ft 412 kts 334°
2026-04-15 14:19 50.53677 7.54437 28197 ft 414 kts 334°
2026-04-15 14:20 50.56273 7.52460 28564 ft 415 kts 327°
2026-04-15 14:20 50.58702 7.50006 28923 ft 416 kts 325°
2026-04-15 14:20 50.61095 7.47541 29273 ft 418 kts 325°
2026-04-15 14:20 50.63541 7.45037 29583 ft 421 kts 325°
2026-04-15 14:21 50.66004 7.42520 29898 ft 424 kts 325°
2026-04-15 14:21 50.68482 7.39983 30221 ft 426 kts 325°
2026-04-15 14:21 50.70974 7.37426 30500 ft 428 kts 324°
2026-04-15 14:21 50.73389 7.34705 30766 ft 427 kts 317°
2026-04-15 14:22 50.75493 7.31402 31026 ft 427 kts 308°
2026-04-15 14:22 50.77291 7.27545 31286 ft 427 kts 303°
2026-04-15 14:22 50.78961 7.23775 31533 ft 428 kts 304°
2026-04-15 14:22 50.80697 7.19876 31839 ft 428 kts 304°
2026-04-15 14:23 50.82416 7.16035 32205 ft 427 kts 304°
2026-04-15 14:23 50.84128 7.12217 32568 ft 425 kts 304°
2026-04-15 14:23 50.85834 7.08403 32932 ft 424 kts 304°
2026-04-15 14:23 50.87545 7.04557 33279 ft 423 kts 303°
2026-04-15 14:24 50.89222 7.00770 33577 ft 423 kts 303°
2026-04-15 14:24 50.90903 6.96959 33898 ft 423 kts 303°
2026-04-15 14:24 50.92586 6.93144 34234 ft 422 kts 303°
2026-04-15 14:24 50.94268 6.89339 34532 ft 421 kts 303°
2026-04-15 14:25 50.95947 6.85541 34818 ft 420 kts 303°
2026-04-15 14:25 50.97616 6.81754 35109 ft 419 kts 303°
2026-04-15 14:25 50.99258 6.78013 35376 ft 418 kts 303°
2026-04-15 14:25 51.00915 6.74229 35641 ft 417 kts 303°
2026-04-15 14:26 51.02570 6.70456 35880 ft 416 kts 303°
2026-04-15 14:26 51.04232 6.66666 36108 ft 416 kts 303°
2026-04-15 14:26 51.05872 6.62920 36178 ft 413 kts 302°
2026-04-15 14:27 51.09135 6.55442 36168 ft 411 kts 302°
2026-04-15 14:27 51.12387 6.47966 36166 ft 411 kts 302°
2026-04-15 14:28 51.15080 6.41747 36163 ft 410 kts 302°
2026-04-15 14:28 51.18315 6.34263 36166 ft 410 kts 302°
2026-04-15 14:29 51.22074 6.25557 36166 ft 410 kts 301°
2026-04-15 14:29 51.24753 6.19327 36174 ft 410 kts 301°
2026-04-15 14:30 51.27973 6.11813 36154 ft 411 kts 300°
2026-04-15 14:30 51.31132 6.04218 36146 ft 411 kts 299°
2026-04-15 14:31 51.34238 5.96538 36148 ft 411 kts 299°
2026-04-15 14:31 51.37390 5.88891 36140 ft 414 kts 304°
2026-04-15 14:32 51.41478 5.82406 36152 ft 419 kts 314°
2026-04-15 14:32 51.45853 5.76227 36167 ft 420 kts 314°
2026-04-15 14:33 51.50229 5.69995 36148 ft 421 kts 313°
2026-04-15 14:33 51.54611 5.63740 36148 ft 422 kts 313°
2026-04-15 14:34 51.58997 5.57465 36150 ft 423 kts 313°
2026-04-15 14:34 51.63382 5.51162 36148 ft 423 kts 313°
2026-04-15 14:35 51.67745 5.44885 36150 ft 423 kts 313°
2026-04-15 14:35 51.72136 5.38561 36162 ft 424 kts 313°
2026-04-15 14:36 51.76527 5.32218 36165 ft 424 kts 313°
2026-04-15 14:36 51.80924 5.25828 36144 ft 426 kts 312°
2026-04-15 14:37 51.85332 5.19419 36141 ft 427 kts 313°
2026-04-15 14:37 51.89720 5.13040 36139 ft 427 kts 313°
2026-04-15 14:38 51.94140 5.06590 36146 ft 428 kts 312°
2026-04-15 14:38 51.98554 5.00120 36144 ft 427 kts 312°
2026-04-15 14:39 52.02952 4.93643 36139 ft 427 kts 312°
2026-04-15 14:39 52.07327 4.87198 36144 ft 428 kts 311°
2026-04-15 14:40 52.11747 4.80663 36124 ft 430 kts 311°
2026-04-15 14:40 52.16168 4.74103 36120 ft 431 kts 311°
2026-04-15 14:41 52.20601 4.67509 36131 ft 432 kts 311°
2026-04-15 14:41 52.25038 4.60900 36125 ft 432 kts 311°
2026-04-15 14:42 52.29450 4.54321 36113 ft 432 kts 311°
2026-04-15 14:42 52.31661 4.51011 36230 ft 428 kts 311°
2026-04-15 14:42 52.33851 4.47719 36365 ft 430 kts 311°
2026-04-15 14:43 52.38268 4.41060 36278 ft 431 kts 311°
2026-04-15 14:43 52.40474 4.37739 36090 ft 431 kts 311°
2026-04-15 14:43 52.42683 4.34409 36119 ft 432 kts 311°
2026-04-15 14:44 52.47080 4.27765 36119 ft 433 kts 311°
2026-04-15 14:44 52.51498 4.21069 36114 ft 433 kts 311°
2026-04-15 14:45 52.55915 4.14352 36111 ft 433 kts 311°
2026-04-15 14:45 52.60329 4.07618 36110 ft 433 kts 311°
2026-04-15 14:46 52.64735 4.00884 36109 ft 432 kts 311°
2026-04-15 14:46 52.69121 3.94161 36103 ft 434 kts 310°
2026-04-15 14:47 52.73547 3.87356 36106 ft 436 kts 310°
2026-04-15 14:47 52.77976 3.80508 36104 ft 437 kts 310°
2026-04-15 14:48 52.82416 3.73637 36091 ft 438 kts 310°
2026-04-15 14:48 52.86828 3.66794 36091 ft 438 kts 310°
2026-04-15 14:49 52.91273 3.59884 36092 ft 438 kts 310°
2026-04-15 14:49 52.95715 3.52955 36131 ft 438 kts 310°
2026-04-15 14:50 53.00149 3.45995 36094 ft 440 kts 309°
2026-04-15 14:50 53.04594 3.38996 36063 ft 441 kts 309°
2026-04-15 14:51 53.08620 3.31556 36062 ft 429 kts 296°
2026-04-15 14:51 53.11065 3.22743 36047 ft 413 kts 278°
2026-04-15 14:52 53.12330 3.13462 36049 ft 411 kts 276°
2026-04-15 14:52 53.13569 3.04157 36078 ft 412 kts 275°
2026-04-15 14:53 53.14797 2.94886 36054 ft 413 kts 275°
2026-04-15 14:53 53.16025 2.85519 36042 ft 414 kts 275°
2026-04-15 14:54 53.17241 2.76133 36045 ft 415 kts 275°
2026-04-15 14:54 53.18450 2.66724 36048 ft 415 kts 275°
2026-04-15 14:55 53.19644 2.57316 36038 ft 415 kts 275°
2026-04-15 14:55 53.21385 2.48110 36053 ft 429 kts 290°
2026-04-15 14:56 53.24571 2.39536 36035 ft 435 kts 295°
2026-04-15 14:56 53.27822 2.31008 36016 ft 436 kts 295°
2026-04-15 14:57 53.31055 2.22422 36016 ft 437 kts 295°
2026-04-15 14:57 53.34288 2.13826 36000 ft 437 kts 295°
2026-04-15 14:58 53.37511 2.05275 36043 ft 437 kts 295°
2026-04-15 14:58 53.40745 1.96651 36017 ft 438 kts 295°
2026-04-15 14:59 53.43977 1.87979 36000 ft 438 kts 295°
2026-04-15 14:59 53.47197 1.79293 35987 ft 439 kts 295°
2026-04-15 15:00 53.50404 1.70649 35985 ft 439 kts 295°
2026-04-15 15:00 53.53631 1.61935 35970 ft 439 kts 295°
2026-04-15 15:01 53.56845 1.53201 36013 ft 439 kts 294°
2026-04-15 15:01 53.60057 1.44441 35966 ft 441 kts 294°
2026-04-15 15:02 53.63254 1.35697 35955 ft 441 kts 294°
2026-04-15 15:02 53.66469 1.26867 35953 ft 442 kts 294°
2026-04-15 15:03 53.69678 1.18015 35946 ft 442 kts 294°
2026-04-15 15:03 53.72891 1.09148 35945 ft 443 kts 294°
2026-04-15 15:04 53.76073 1.00329 35976 ft 444 kts 293°
2026-04-15 15:04 53.79282 0.91395 35936 ft 445 kts 293°
2026-04-15 15:05 53.82489 0.82427 35919 ft 446 kts 293°
2026-04-15 15:05 53.85695 0.73434 35917 ft 447 kts 293°
2026-04-15 15:06 53.90506 0.59894 35910 ft 447 kts 293°
2026-04-15 15:06 53.93683 0.50905 35958 ft 447 kts 292°
2026-04-15 15:07 53.96879 0.41812 35912 ft 449 kts 292°
2026-04-15 15:07 54.00072 0.32698 35911 ft 450 kts 292°
2026-04-15 15:08 54.03428 0.23673 35891 ft 458 kts 301°
2026-04-15 15:08 54.07662 0.15448 35891 ft 462 kts 304°
2026-04-15 15:09 54.11896 0.07296 35883 ft 463 kts 304°
2026-04-15 15:09 54.16147 -0.00945 35901 ft 463 kts 304°
2026-04-15 15:10 54.20405 -0.09223 35886 ft 464 kts 303°
2026-04-15 15:10 54.24665 -0.17530 35877 ft 465 kts 303°
2026-04-15 15:11 54.28898 -0.25821 35869 ft 466 kts 303°
2026-04-15 15:11 54.33160 -0.34192 35868 ft 466 kts 303°
2026-04-15 15:12 54.37431 -0.42601 35866 ft 467 kts 303°
2026-04-15 15:12 54.41689 -0.51020 35857 ft 467 kts 303°
2026-04-15 15:13 54.45903 -0.59404 35852 ft 467 kts 303°
2026-04-15 15:13 54.50142 -0.67858 35858 ft 467 kts 303°
2026-04-15 15:14 54.54381 -0.76326 35850 ft 467 kts 303°
2026-04-15 15:14 54.58624 -0.84825 35842 ft 467 kts 303°
2026-04-15 15:15 54.62828 -0.93275 35835 ft 467 kts 303°
2026-04-15 15:15 54.67055 -1.01811 35834 ft 467 kts 303°
2026-04-15 15:16 54.71271 -1.10361 35883 ft 467 kts 303°
2026-04-15 15:16 54.75487 -1.18940 35835 ft 469 kts 303°
2026-04-15 15:17 54.79715 -1.27577 35808 ft 472 kts 303°
2026-04-15 15:17 54.83942 -1.36238 35806 ft 474 kts 303°
2026-04-15 15:18 54.88201 -1.44988 35805 ft 475 kts 303°
2026-04-15 15:18 54.90329 -1.49363 35570 ft 472 kts 303°
2026-04-15 15:18 54.92438 -1.53712 35329 ft 471 kts 302°
2026-04-15 15:19 54.94546 -1.58073 35087 ft 470 kts 302°
2026-04-15 15:19 54.96647 -1.62427 34849 ft 469 kts 302°
2026-04-15 15:19 54.98744 -1.66784 34680 ft 470 kts 302°
2026-04-15 15:19 55.00836 -1.71142 34446 ft 470 kts 302°
2026-04-15 15:20 55.02911 -1.75467 34217 ft 469 kts 301°
2026-04-15 15:20 55.05024 -1.79877 33985 ft 469 kts 301°
2026-04-15 15:20 55.07109 -1.84237 33801 ft 467 kts 301°
2026-04-15 15:20 55.09159 -1.88537 33811 ft 468 kts 301°
2026-04-15 15:21 55.11235 -1.92904 33703 ft 466 kts 300°
2026-04-15 15:21 55.13058 -1.97483 33179 ft 451 kts 290°
2026-04-15 15:21 55.14612 -2.02213 32641 ft 447 kts 290°
2026-04-15 15:21 55.16151 -2.06906 32131 ft 445 kts 290°
2026-04-15 15:22 55.17691 -2.11588 31629 ft 442 kts 290°
2026-04-15 15:22 55.19223 -2.16237 31148 ft 440 kts 290°
2026-04-15 15:22 55.20749 -2.20887 30415 ft 445 kts 290°
2026-04-15 15:22 55.22300 -2.25659 29436 ft 455 kts 290°
2026-04-15 15:23 55.23872 -2.30488 28699 ft 455 kts 290°
2026-04-15 15:23 55.25418 -2.35219 28107 ft 452 kts 291°
2026-04-15 15:23 55.26974 -2.39986 27595 ft 448 kts 291°
2026-04-15 15:23 55.28510 -2.44697 27084 ft 444 kts 291°
2026-04-15 15:24 55.30036 -2.49379 26554 ft 438 kts 291°
2026-04-15 15:24 55.31539 -2.54007 25912 ft 434 kts 291°
2026-04-15 15:24 55.33021 -2.58590 25280 ft 429 kts 291°
2026-04-15 15:24 55.34482 -2.63123 24679 ft 425 kts 291°
2026-04-15 15:25 55.35926 -2.67617 24084 ft 420 kts 291°
2026-04-15 15:25 55.37353 -2.72075 23517 ft 416 kts 291°
2026-04-15 15:25 55.38742 -2.76423 22884 ft 411 kts 291°
2026-04-15 15:25 55.40137 -2.80791 22271 ft 408 kts 292°
2026-04-15 15:26 55.41518 -2.85121 21639 ft 404 kts 292°
2026-04-15 15:26 55.42883 -2.89411 21057 ft 399 kts 292°
2026-04-15 15:26 55.44218 -2.93601 20824 ft 385 kts 292°
2026-04-15 15:26 55.45490 -2.97651 20547 ft 371 kts 289°
2026-04-15 15:27 55.46354 -3.01805 20116 ft 354 kts 275°
2026-04-15 15:27 55.46811 -3.06014 19641 ft 348 kts 272°
2026-04-15 15:27 55.47247 -3.10177 19077 ft 344 kts 273°
2026-04-15 15:27 55.47686 -3.14302 18552 ft 341 kts 273°
2026-04-15 15:28 55.48119 -3.18332 18020 ft 337 kts 274°
2026-04-15 15:28 55.48553 -3.22374 17428 ft 334 kts 274°
2026-04-15 15:28 55.48982 -3.26364 16874 ft 329 kts 274°
2026-04-15 15:28 55.49401 -3.30300 16362 ft 325 kts 274°
2026-04-15 15:29 55.49874 -3.34175 15904 ft 324 kts 281°
2026-04-15 15:29 55.50790 -3.37830 15445 ft 327 kts 294°
2026-04-15 15:29 55.51968 -3.41243 14946 ft 324 kts 295°
2026-04-15 15:29 55.53140 -3.44604 14378 ft 319 kts 295°
2026-04-15 15:30 55.54295 -3.47917 13870 ft 315 kts 295°
2026-04-15 15:30 55.55433 -3.51183 13324 ft 310 kts 295°
2026-04-15 15:30 55.56556 -3.54419 12749 ft 307 kts 295°
2026-04-15 15:30 55.57662 -3.57622 12114 ft 304 kts 294°
2026-04-15 15:31 55.58759 -3.60811 11511 ft 302 kts 294°
2026-04-15 15:31 55.59832 -3.63934 10913 ft 299 kts 294°
2026-04-15 15:31 55.60905 -3.67071 10235 ft 298 kts 294°
2026-04-15 15:31 55.61976 -3.70198 9638 ft 296 kts 294°
2026-04-15 15:32 55.63035 -3.73293 8980 ft 293 kts 294°
2026-04-15 15:32 55.64090 -3.76379 8316 ft 291 kts 294°
2026-04-15 15:32 55.65133 -3.79438 7746 ft 291 kts 294°
2026-04-15 15:32 55.66174 -3.82493 7344 ft 288 kts 293°
2026-04-15 15:33 55.67206 -3.85523 6934 ft 287 kts 293°
2026-04-15 15:33 55.68222 -3.88510 6721 ft 277 kts 293°
2026-04-15 15:33 55.69203 -3.91359 6717 ft 271 kts 295°
2026-04-15 15:33 55.70510 -3.93816 6730 ft 280 kts 322°
2026-04-15 15:34 55.72284 -3.95264 6667 ft 281 kts 334°
2026-04-15 15:34 55.74098 -3.96539 6306 ft 280 kts 334°
2026-04-15 15:34 55.75901 -3.97804 5924 ft 278 kts 334°
2026-04-15 15:34 55.77701 -3.99068 5534 ft 278 kts 334°
2026-04-15 15:35 55.79490 -4.00333 5162 ft 276 kts 333°
2026-04-15 15:35 55.81275 -4.01599 4767 ft 275 kts 333°
2026-04-15 15:35 55.83026 -4.02841 4396 ft 274 kts 333°
2026-04-15 15:35 55.84792 -4.04092 4120 ft 273 kts 333°
2026-04-15 15:36 55.86548 -4.05342 3885 ft 272 kts 333°
2026-04-15 15:36 55.88299 -4.06595 3619 ft 271 kts 333°
2026-04-15 15:36 55.90048 -4.07843 3361 ft 270 kts 334°
2026-04-15 15:36 55.91792 -4.09089 3116 ft 269 kts 334°
2026-04-15 15:37 55.93519 -4.10320 2991 ft 263 kts 334°
2026-04-15 15:37 55.95173 -4.11494 2995 ft 249 kts 333°
2026-04-15 15:37 55.96752 -4.12614 2995 ft 239 kts 332°
2026-04-15 15:37 55.98104 -4.14040 3041 ft 216 kts 308°
2026-04-15 15:38 55.98915 -4.16085 3008 ft 196 kts 282°
2026-04-15 15:38 55.99190 -4.18340 2989 ft 179 kts 258°
2026-04-15 15:38 55.98995 -4.20455 3008 ft 171 kts 241°
2026-04-15 15:38 55.98422 -4.22221 2977 ft 160 kts 222°
2026-04-15 15:39 55.97668 -4.23655 2851 ft 156 kts 219°
2026-04-15 15:39 55.96925 -4.25056 2676 ft 152 kts 219°
2026-04-15 15:39 55.96223 -4.26381 2486 ft 142 kts 218°
2026-04-15 15:39 55.95551 -4.27643 2308 ft 140 kts 219°
2026-04-15 15:40 55.94902 -4.28866 2122 ft 135 kts 219°
2026-04-15 15:40 55.94269 -4.30057 1950 ft 131 kts 219°
2026-04-15 15:40 55.93647 -4.31225 1769 ft 128 kts 218°
2026-04-15 15:40 55.93035 -4.32374 1597 ft 127 kts 220°
2026-04-15 15:41 55.92417 -4.33532 1415 ft 130 kts 219°
2026-04-15 15:41 55.91797 -4.34698 1230 ft 130 kts 220°
2026-04-15 15:41 55.91179 -4.35859 1018 ft 130 kts 219°
2026-04-15 15:41 55.90542 -4.37059 894 ft 135 kts 221°
2026-04-15 15:42 55.89908 -4.38261 699 ft 131 kts 220°
2026-04-15 15:42 55.89304 -4.39400 481 ft 122 kts 218°
2026-04-15 15:42 55.88683 -4.40616 659 ft 141 kts 223°
2026-04-15 15:42 55.88013 -4.41930 1476 ft 144 kts 219°
2026-04-15 15:43 55.87304 -4.43352 1825 ft 163 kts 221°
2026-04-15 15:43 55.86481 -4.44994 2112 ft 189 kts 222°
2026-04-15 15:43 55.85606 -4.46741 2769 ft 193 kts 223°
2026-04-15 15:43 55.84717 -4.48515 2960 ft 191 kts 222°
2026-04-15 15:44 55.83836 -4.50273 3000 ft 191 kts 222°
2026-04-15 15:44 55.82882 -4.52123 3018 ft 210 kts 222°
2026-04-15 15:44 55.81793 -4.53855 3007 ft 209 kts 203°
2026-04-15 15:44 55.80386 -4.54055 3006 ft 211 kts 163°
2026-04-15 15:45 55.79208 -4.52427 3007 ft 225 kts 130°
2026-04-15 15:45 55.78694 -4.49665 2978 ft 255 kts 99°
2026-04-15 15:45 55.79050 -4.46471 2997 ft 276 kts 69°
2026-04-15 15:45 55.80217 -4.43698 2999 ft 286 kts 50°
2026-04-15 15:46 55.81653 -4.41220 3002 ft 288 kts 47°
2026-04-15 15:46 55.83085 -4.38792 3005 ft 288 kts 50°
2026-04-15 15:46 55.84438 -4.36188 3005 ft 287 kts 52°
2026-04-15 15:46 55.85778 -4.33560 3002 ft 286 kts 52°
2026-04-15 15:47 55.87121 -4.30960 3004 ft 286 kts 52°
2026-04-15 15:47 55.88466 -4.28350 3005 ft 286 kts 52°
2026-04-15 15:47 55.89811 -4.25726 3001 ft 287 kts 52°
2026-04-15 15:47 55.91157 -4.23103 3003 ft 286 kts 52°
2026-04-15 15:48 55.92507 -4.20483 3001 ft 287 kts 52°
2026-04-15 15:48 55.93865 -4.17868 2999 ft 285 kts 52°
2026-04-15 15:48 55.95169 -4.15367 2994 ft 265 kts 52°
2026-04-15 15:48 55.96382 -4.13042 2998 ft 248 kts 52°
2026-04-15 15:49 55.97523 -4.10903 2998 ft 236 kts 47°
2026-04-15 15:49 55.98954 -4.09646 2991 ft 229 kts
2026-04-15 15:49 56.00413 -4.10314 3041 ft 211 kts 314°
2026-04-15 15:49 56.01304 -4.12242 3018 ft 194 kts 284°
2026-04-15 15:50 56.01566 -4.14478 3001 ft 178 kts 256°
2026-04-15 15:50 56.01283 -4.16518 2988 ft 164 kts 234°
2026-04-15 15:50 56.00608 -4.18096 2996 ft 159 kts 221°
2026-04-15 15:50 55.99845 -4.19537 2996 ft 160 kts 220°
2026-04-15 15:51 55.99096 -4.20955 3014 ft 160 kts 221°
2026-04-15 15:51 55.98327 -4.22407 2972 ft 159 kts 220°
2026-04-15 15:51 55.97583 -4.23813 2836 ft 157 kts 219°
2026-04-15 15:51 55.96828 -4.25235 2657 ft 159 kts 219°
2026-04-15 15:52 55.96068 -4.26665 2453 ft 159 kts 220°
2026-04-15 15:52 55.95302 -4.28108 2237 ft 162 kts 220°
2026-04-15 15:52 55.94525 -4.29569 2015 ft 162 kts 220°
2026-04-15 15:52 55.93783 -4.30971 1812 ft 148 kts 220°
2026-04-15 15:53 55.93117 -4.32227 1626 ft 134 kts 219°
2026-04-15 15:53 55.92487 -4.33408 1444 ft 130 kts 219°
2026-04-15 15:53 55.91860 -4.34582 1252 ft 130 kts 221°
2026-04-15 15:53 55.91241 -4.35742 1063 ft 129 kts 221°
2026-04-15 15:54 55.90625 -4.36893 903 ft 130 kts 222°
2026-04-15 15:54 55.89990 -4.38085 740 ft 135 kts 219°
2026-04-15 15:54 55.89346 -4.39292 537 ft 136 kts 220°
2026-04-15 15:54 55.88709 -4.40498 338 ft 132 kts 218°
2026-04-15 15:55 55.88086 -4.41666 140 ft 129 kts 219°
2026-04-15 15:55 55.87487 -4.42791 30 ft 116 kts 225°
2026-04-15 15:55 55.87092 -4.43519 29 ft 40 kts 225°
2026-04-15 15:55 55.86900 -4.43701 29 ft 28 kts 199°
2026-04-15 15:56 55.86754 -4.43788 29 ft 18 kts 199°
2026-04-15 15:56 55.86649 -4.43910 29 ft 19 kts 227°
2026-04-15 15:56 55.86558 -4.44035 29 ft 14 kts 166°
2026-04-15 15:56 55.86536 -4.43973 29 ft 4 kts 49°
2026-04-15 15:57 55.86555 -4.43910 29 ft 5 kts 65°
2026-04-15 15:57 55.86563 -4.43884 29 ft 0 kts 61°